Theta_e
314 314 314 314 313 312 313 314 315 315 315 315 315 314 314 314 314 314 314 314 314 314 314 314 316 318 315 304 306 312 323 323 317 313 311 308 307 307 305 306 306 305 307 308 313 314 314
315 314 314 314 313 313 314 315 315 313 314 315 315 315 314 313 313 314 314 313 313 313 313 314 316 317 309 299 312 312 312 312 313 313 312 310 308 309 309 307 307 309 310 312 313 312 312
316 315 314 315 315 314 314 314 314 314 314 315 315 315 314 313 313 313 313 313 313 313 314 315 316 316 306 302 311 312 312 312 312 312 311 313 312 310 311 308 311 312 310 311 312 312 311
316 314 314 314 315 315 314 313 313 314 314 315 315 314 313 313 313 312 312 312 312 313 315 315 316 315 300 309 312 313 313 313 312 312 312 313 313 312 311 312 309 308 309 306 308 311 309
316 314 313 314 314 314 312 313 312 313 314 314 314 314 313 312 312 312 312 311 312 315 315 316 311 307 300 314 310 314 314 311 311 312 313 314 316 311 311 308 306 305 302 303 304 309 308
315 314 313 314 314 314 313 313 313 313 313 314 314 313 313 312 312 311 311 311 313 315 315 316 314 301 304 304 311 313 314 312 309 311 311 311 309 307 306 306 298 300 301 301 301 305 307
316 315 313 314 314 313 313 314 313 313 313 313 312 312 312 312 312 311 311 314 310 307 312 301 300 299 303 313 313 310 312 308 309 308 304 305 304 300 301 304 304 302 300 300 302 304 305
316 315 314 313 313 313 312 313 313 312 312 312 312 312 312 312 311 311 310 312 312 312 305 311 310 310 312 314 306 307 311 306 305 301 303 302 299 303 303 303 303 302 300 300 302 303 304
316 315 314 313 312 312 312 312 312 311 311 311 312 310 310 310 309 309 311 312 314 315 304 304 308 307 308 312 304 306 309 305 302 300 300 300 301 303 302 300 299 300 299 299 299 302 303
315 314 313 313 312 312 313 312 311 311 311 311 311 309 309 308 307 305 311 312 311 315 297 299 301 305 309 310 306 311 310 306 302 300 300 301 302 301 300 299 300 297 301 300 298 300 298
314 313 312 312 311 311 312 311 311 311 311 311 310 309 308 309 303 309 311 309 315 313 287 302 304 309 309 305 305 305 308 307 300 300 301 299 300 299 298 300 301 300 303 301 302 301 299
314 313 312 311 310 310 311 311 310 310 310 310 309 309 308 308 306 310 308 311 311 294 287 299 303 301 304 304 304 305 304 306 304 300 300 300 302 301 302 301 302 304 301 299 297 298 293
312 312 312 311 310 310 310 310 310 309 309 309 309 308 306 307 305 307 308 308 292 289 299 296 297 301 300 300 301 302 299 299 298 295 294 297 299 300 302 300 302 301 299 293 291 291 290
312 311 311 311 310 310 309 309 309 309 309 309 309 307 305 306 306 306 311 301 288 292 295 299 299 299 298 299 298 298 297 296 299 296 294 293 292 299 301 301 298 299 300 294 286 288 291
311 311 310 310 310 309 309 309 308 308 308 309 308 303 305 306 307 309 301 289 290 296 299 296 298 295 296 298 298 298 297 296 298 299 295 293 294 301 301 301 300 298 296 298 293 291 290
311 310 310 309 309 309 309 308 308 308 309 308 304 305 308 313 310 307 295 288 294 301 299 298 295 297 294 296 296 297 295 298 297 299 301 298 293 298 301 302 301 300 300 294 294 287 285
311 310 310 309 309 309 308 308 307 308 309 308 303 301 312 311 306 295 287 289 296 302 300 297 296 296 296 296 296 295 295 298 299 299 299 299 296 296 300 297 295 298 296 295 295 292 288
305 309 309 308 308 308 307 307 307 307 309 306 303 296 312 305 290 290 289 293 297 297 301 299 301 299 297 298 296 295 295 297 300 300 296 298 297 293 295 299 300 298 296 295 293 289 290
305 309 309 308 308 307 307 307 306 307 309 303 302 305 311 303 285 287 291 292 295 295 299 299 298 299 299 298 295 297 298 301 301 300 298 298 294 290 293 297 300 296 295 295 295 294 289
305 306 308 308 308 307 307 307 306 307 309 307 301 297 304 301 294 290 290 291 291 296 298 299 299 300 298 297 298 297 297 301 302 301 302 303 296 291 289 291 295 292 293 294 295 291 289
305 304 308 307 307 307 307 307 306 306 309 306 303 297 300 294 296 296 293 292 290 293 300 300 298 297 297 295 296 296 298 300 302 301 301 302 294 293 292 294 294 292 292 294 293 292 291
305 304 307 307 307 307 307 306 305 307 309 304 300 300 296 296 297 296 294 294 291 292 298 298 297 298 298 297 297 297 299 299 298 301 299 299 294 294 291 293 294 292 293 294 293 293 294
305 305 305 306 306 307 307 306 305 307 308 300 301 304 298 293 294 293 292 295 297 299 301 299 300 299 299 300 302 302 302 302 301 300 298 297 294 291 289 291 291 289 292 293 293 294 294
305 306 305 307 306 307 306 305 305 306 306 303 306 305 299 292 292 293 295 296 298 298 298 300 302 300 303 305 303 303 302 302 301 299 299 296 293 291 288 289 284 291 297 296 295 294 296
304 306 306 307 306 306 305 305 305 305 308 307 307 305 301 294 294 294 296 296 300 301 300 300 302 303 305 302 297 293 293 295 296 298 298 299 295 290 288 287 289 293 295 296 294 293 298
303 305 306 306 305 305 305 305 305 305 308 308 307 308 306 297 296 300 296 299 297 297 298 301 304 305 304 296 292 287 287 289 290 293 298 298 298 295 288 287 283 293 300 302 299 290 299
303 304 305 306 305 304 304 304 304 305 308 309 307 309 307 298 300 302 297 298 300 298 297 300 301 303 302 294 290 289 290 293 289 289 291 292 292 291 288 288 291 298 302 299 288 291 299
302 303 304 305 305 304 304 304 304 306 308 309 306 309 307 299 301 304 304 302 300 300 298 300 299 300 296 293 292 290 291 293 291 293 293 292 292 291 290 289 288 301 300 294 299 301 300
302 303 304 305 304 304 304 304 304 306 308 308 304 309 310 302 303 306 307 307 305 305 301 300 300 297 298 294 293 293 291 293 291 291 298 293 296 295 294 294 300 301 302 302 302 302 300
Wind_Speed
8 8 8 8 9 9 10 10 9 7 7 8 9 11 12 14 15 15 15 15 15 17 17 16 16 16 7 3 8 0 2 3 2 4 5 3 4 5 6 5 6 6 4 3 3 4 2
8 8 8 8 9 10 9 10 9 7 8 8 9 11 12 15 16 16 17 16 15 16 17 16 14 13 1 4 2 1 6 5 3 3 4 6 4 5 4 4 7 4 3 3 1 3 3
10 8 8 8 10 8 10 11 8 7 7 8 9 11 12 15 16 16 18 18 17 17 18 14 9 3 2 13 1 7 4 3 2 3 4 5 4 5 2 2 1 2 3 1 3 3 2
9 8 8 7 9 8 10 10 6 6 7 8 9 10 12 14 16 18 19 19 19 19 15 8 5 2 7 4 1 9 2 4 5 4 3 1 4 3 1 1 3 4 5 4 4 5 2
10 9 8 8 6 8 8 7 6 6 7 7 9 10 11 14 16 18 20 21 19 9 0 6 4 2 8 6 2 3 4 2 3 4 1 3 3 3 2 1 2 4 8 5 4 4 4
12 10 8 6 5 7 6 7 6 6 6 8 10 10 12 15 16 18 21 19 5 2 4 3 2 1 3 3 6 6 2 3 1 4 3 4 4 2 2 1 6 2 2 1 5 2 3
14 11 9 7 5 6 4 5 5 6 7 8 10 11 12 16 16 16 13 3 3 1 3 3 1 3 4 10 4 3 1 3 3 5 3 3 2 3 3 3 3 2 2 5 3 5 3
14 12 10 8 6 6 6 6 6 5 6 9 9 10 13 16 18 17 2 5 3 1 7 3 6 7 6 3 5 4 0 4 3 4 4 2 2 4 3 3 2 2 4 7 6 1 5
14 13 11 9 7 6 5 5 5 5 6 8 9 12 14 15 19 3 3 3 4 4 2 6 4 3 3 7 4 5 2 3 4 5 3 4 2 5 2 2 3 3 4 5 7 1 2
15 14 11 9 7 6 5 5 6 6 7 9 10 12 14 19 1 2 1 4 5 4 3 4 2 3 4 3 3 3 2 3 2 6 7 3 0 3 2 3 4 3 3 8 2 2 2
14 14 12 10 7 6 5 5 6 6 7 9 11 11 12 9 1 1 3 7 3 2 4 2 1 1 0 4 0 4 1 4 6 5 4 3 3 3 1 4 5 5 1 2 2 4 1
14 15 12 11 8 7 6 5 7 6 7 9 12 10 12 1 0 3 7 6 1 3 1 2 2 3 3 1 2 1 2 5 2 4 1 3 2 3 5 2 5 3 2 5 4 2 1
12 16 14 11 10 7 5 5 6 6 7 8 10 9 6 3 1 6 5 2 3 4 2 3 1 3 3 3 1 2 3 4 1 3 1 2 3 3 1 2 2 2 2 3 2 0 1
14 15 17 14 12 9 5 5 5 5 7 9 9 11 3 3 4 5 2 3 2 1 3 3 2 1 3 2 3 5 3 3 3 2 3 2 4 1 1 2 1 2 3 4 3 3 1
15 14 13 11 10 9 6 4 4 5 7 8 10 2 2 2 2 2 4 3 5 4 1 4 2 3 2 2 4 4 4 2 1 2 3 3 3 2 4 2 1 3 2 1 6 2 1
16 15 13 12 11 10 6 4 3 5 6 5 2 2 2 4 2 3 4 3 3 3 1 1 2 2 2 4 3 3 2 2 3 2 2 2 1 3 3 1 6 2 5 1 3 2 2
18 17 15 13 12 12 7 3 2 4 3 3 1 3 2 3 2 5 3 5 3 5 2 1 2 3 2 2 3 2 2 2 2 3 2 1 1 2 2 6 4 4 3 6 4 2 1
10 17 16 14 12 11 9 4 2 3 1 1 1 3 2 2 5 1 3 4 2 4 1 1 3 3 2 2 4 3 3 1 3 2 2 2 3 3 2 2 2 5 3 2 2 3 3
5 13 16 14 13 11 10 7 3 1 3 1 2 2 1 4 4 2 2 3 2 2 3 3 2 3 3 3 5 2 1 1 5 3 2 1 4 3 1 1 3 6 5 3 4 3 4
9 8 16 14 13 13 12 9 4 1 5 1 0 4 1 4 1 4 4 1 2 2 2 2 2 3 4 4 5 3 2 4 4 3 6 5 4 2 1 3 1 5 7 4 4 3 4
13 9 15 15 14 14 12 10 6 2 5 0 1 1 2 4 3 3 1 2 3 2 1 3 3 4 4 4 3 3 1 2 4 6 4 4 5 4 6 8 8 5 7 11 8 3 3
14 11 10 13 12 13 12 10 7 3 7 0 2 2 2 1 3 5 1 5 6 1 1 1 6 2 3 5 3 5 4 0 1 5 4 3 4 2 6 9 9 10 7 7 7 4 6
12 14 11 13 14 14 13 11 9 7 4 2 1 1 1 2 3 4 4 4 5 4 1 1 5 6 6 3 4 4 4 4 3 2 3 3 5 3 4 2 3 3 4 3 3 3 2
12 13 14 12 14 14 14 12 10 7 5 1 0 1 1 2 2 4 4 3 3 4 4 2 2 5 2 6 4 3 7 7 7 7 2 5 4 2 3 2 1 2 1 2 7 2 1
11 12 15 15 16 14 14 12 10 8 7 1 1 2 1 2 1 1 2 3 3 3 3 3 3 2 3 5 4 4 4 3 4 7 5 3 5 4 3 2 2 2 3 4 3 2 1
11 12 14 16 15 15 15 12 10 9 6 2 1 1 1 2 2 1 2 3 3 3 2 2 3 2 5 4 4 4 3 1 1 2 3 6 6 4 2 4 3 1 0 1 3 2 1
14 12 11 16 16 16 15 13 11 9 8 2 1 1 1 2 2 1 2 3 3 3 3 1 0 2 3 2 3 2 3 2 3 4 4 3 3 3 3 2 1 2 2 3 1 3 2
15 13 12 17 18 17 16 14 11 10 10 4 1 3 0 1 2 0 2 1 1 1 5 4 3 2 3 4 2 3 2 2 2 2 2 4 4 2 3 2 2 1 4 2 2 2 4
16 14 13 17 16 16 16 14 12 11 11 5 1 1 2 1 1 1 1 1 2 3 5 1 2 2 3 5 1 3 2 1 3 3 1 2 2 4 2 2 2 2 4 3 2 4 3
Wind_Direction
249 260 272 283 283 289 288 287 288 308 316 321 321 321 322 320 323 320 319 315 315 314 314 313 317 325 350 351 253 312 43 24 162 146 162 171 181 175 197 193 153 223 249 167 312 162 95
234 252 266 271 275 289 297 291 270 287 304 313 317 317 320 321 320 316 313 313 310 305 301 302 313 316 253 284 237 121 337 332 188 194 177 168 215 227 235 203 200 216 235 144 114 130 119
230 245 255 268 278 296 295 289 276 285 301 307 316 318 317 318 314 312 312 310 304 297 294 293 289 261 157 241 179 319 310 247 218 203 202 207 184 193 179 215 169 193 181 245 133 164 149
224 237 253 261 275 289 294 298 271 288 301 306 316 316 314 313 312 313 311 307 303 302 300 270 217 180 249 239 297 300 227 264 221 227 243 341 147 191 265 30 37 231 79 263 107 183 23
211 225 251 261 269 295 294 283 276 287 297 309 314 315 314 311 311 312 309 306 304 304 206 135 128 196 261 308 288 309 218 235 176 144 194 91 102 79 36 196 277 352 214 228 335 239 120
208 219 237 258 282 302 307 301 291 308 319 319 316 318 316 312 313 315 312 302 280 316 136 193 254 317 286 318 294 312 254 229 185 106 76 50 58 95 82 214 253 286 286 283 273 43 189
207 210 224 239 257 286 313 316 319 330 330 323 321 320 320 314 314 319 333 6 9 348 29 211 218 284 306 309 263 279 313 130 104 70 148 32 167 202 254 200 170 175 219 273 259 233 241
200 202 210 228 247 272 288 300 310 328 334 323 321 322 324 318 314 321 259 68 97 282 312 278 252 269 275 242 297 294 202 124 117 158 121 61 255 217 181 150 191 233 288 285 283 145 202
201 196 201 211 240 261 280 298 312 327 336 324 323 330 326 324 314 356 17 92 331 161 264 296 219 234 218 163 222 266 129 127 115 133 159 167 202 127 178 232 250 254 237 242 261 166 181
197 191 194 197 221 247 268 293 308 327 335 328 332 329 332 328 303 323 127 334 324 185 30 301 319 265 175 176 263 225 261 123 65 159 152 202 112 201 170 254 168 278 235 259 193 194 350
199 186 186 194 203 237 255 282 303 325 332 325 330 329 334 359 263 184 339 332 291 149 66 278 173 129 149 178 237 13 320 57 151 152 147 220 184 184 252 238 186 255 127 150 135 113 211
200 179 184 191 200 227 248 271 300 319 327 326 323 329 333 223 97 289 326 320 221 47 97 27 126 131 135 312 342 96 115 44 107 106 31 227 260 220 221 198 193 125 116 61 64 91 194
201 179 181 185 199 213 243 264 297 318 321 323 317 319 315 301 163 332 323 65 53 114 303 334 13 168 168 174 120 50 55 33 123 117 349 293 228 278 230 224 135 112 95 300 254 10 281
189 183 182 184 197 190 219 263 296 313 316 319 325 311 264 249 305 339 12 60 104 127 286 327 7 54 107 12 27 31 81 94 46 61 135 183 308 214 295 231 251 173 191 185 233 214 273
182 183 184 184 192 190 195 248 292 310 319 331 327 272 281 272 276 105 73 87 190 194 261 328 337 96 34 34 110 83 42 81 297 340 171 169 277 337 27 44 346 143 173 96 107 59 207
189 180 179 186 196 174 186 227 287 308 331 17 341 275 17 331 84 62 76 219 229 225 338 245 97 30 110 357 76 65 22 357 328 355 265 182 286 13 5 355 57 35 124 134 40 186 233
207 180 176 180 181 175 172 205 285 311 353 7 286 79 324 23 59 51 161 226 266 263 216 188 131 97 86 99 66 71 359 5 352 315 42 112 72 340 39 32 342 12 46 63 108 37 132
317 175 176 177 185 179 178 195 239 310 93 52 346 81 340 39 64 39 182 206 309 282 335 352 103 95 95 85 66 87 111 297 343 255 55 26 103 65 97 84 14 61 50 62 110 138 59
200 205 175 178 182 183 177 185 216 338 152 66 111 101 22 79 141 224 275 275 252 317 9 16 90 59 51 99 103 79 108 70 355 56 75 135 32 101 70 185 31 46 2 12 88 98 41
197 265 175 177 174 174 168 173 178 175 166 47 132 124 73 52 249 145 150 203 282 277 270 68 103 100 93 55 27 123 92 1 8 67 43 87 71 51 140 64 97 53 17 12 75 64 113
183 225 184 173 175 172 167 165 159 182 156 59 214 187 125 183 222 141 132 144 171 156 245 35 57 67 119 103 67 94 67 7 37 359 46 72 79 81 51 69 88 87 50 47 73 61 55
176 183 180 174 170 170 166 159 151 151 140 9 164 160 53 119 105 119 205 211 180 279 321 288 118 94 88 117 153 182 139 153 162 25 57 26 131 113 67 70 76 76 52 71 63 53 87
178 169 180 180 172 172 161 156 154 155 161 141 253 271 81 307 117 123 213 190 202 174 48 1 153 106 81 132 137 102 89 81 73 102 88 70 133 105 158 348 90 65 9 64 94 57 50
194 177 165 181 174 174 162 162 163 165 161 149 97 78 105 159 147 192 195 188 161 195 153 45 43 101 155 103 113 52 53 62 59 44 40 121 97 58 123 135 120 79 43 77 113 101 112
192 182 169 184 178 174 163 168 175 171 191 305 7 337 83 110 175 174 171 177 112 69 70 93 21 7 124 63 68 47 359 30 47 32 24 69 120 89 117 81 327 225 200 184 188 97 195
186 191 179 174 177 169 164 172 177 178 179 180 330 324 335 122 228 340 170 177 150 121 61 63 51 39 66 73 70 129 190 187 219 66 65 69 70 102 128 127 175 187 60 276 154 112 91
194 193 196 176 180 172 166 173 176 177 169 151 245 161 310 97 300 164 185 184 128 98 100 97 76 77 42 87 95 151 190 191 177 163 154 60 37 106 133 113 256 241 90 149 221 53 100
186 189 191 178 177 170 166 170 173 175 171 157 254 184 320 123 326 294 309 204 101 135 139 170 93 17 66 78 134 180 163 177 120 160 186 162 137 146 120 112 161 31 130 168 101 93 120
185 185 188 179 173 174 168 169 176 173 177 170 255 116 133 184 127 306 292 18 302 294 133 50 123 129 151 97 148 126 137 149 149 175 55 175 186 155 201 106 74 22 96 96 97 102 95